Wind_Speed
9 5 6 5 5 4 6 10 11 11 14 18 14 8 6 4 1 5 9 11 9 7 7 7 8 8 8 8 8 7 8 9 10 9 7 6 6 7 8 7 1 1 7 9 8 8 8 7 8 8 6 7 7 6 5 5 4 6 7 4 3 5 6 8 11 14 16 18 20 18 14 11 12 7 3 3 10 9 10 13 13 14 15 13 13 9 4
7 5 6 4 4 4 1 5 9 9 9 12 13 12 12 9 9 9 10 12 10 7 8 9 8 9 9 8 9 9 10 11 11 9 8 7 8 8 6 1 4 4 8 9 10 11 9 8 8 7 6 5 6 7 6 4 4 5 6 7 7 6 6 6 7 10 11 12 13 13 11 9 13 14 10 11 14 10 11 15 14 13 14 12 11 8 3
5 4 6 5 5 6 7 6 5 5 6 8 8 10 11 9 9 9 8 9 8 6 8 11 9 9 11 12 12 12 11 12 11 11 11 9 10 9 7 5 4 9 10 9 11 12 11 10 9 6 5 4 4 7 7 5 5 5 5 6 5 5 7 8 7 7 8 9 8 7 8 9 11 14 16 17 17 10 9 12 12 10 10 9 8 6 4
3 3 5 3 1 2 5 7 7 3 1 4 4 6 8 8 5 6 7 6 6 5 8 10 10 11 14 13 12 11 10 12 13 14 14 12 12 12 11 10 12 13 12 13 14 13 11 10 9 8 9 5 2 5 8 7 6 6 6 7 6 5 6 7 7 6 5 4 5 5 5 6 7 11 14 16 16 11 8 8 9 11 11 10 8 6 7
2 3 5 5 4 1 3 4 6 6 4 6 7 6 7 7 5 3 5 5 6 7 9 11 12 13 14 12 11 10 10 12 13 14 15 13 13 12 12 13 14 14 14 16 19 20 20 18 13 11 11 7 3 5 7 9 9 8 6 5 4 2 3 2 3 2 1 3 5 5 5 5 6 10 14 16 15 11 9 8 10 13 13 12 9 7 8
3 4 7 5 2 2 2 4 2 8 8 7 8 7 7 7 5 5 6 6 7 9 10 12 12 13 12 12 11 10 9 10 11 12 13 11 11 11 12 13 13 13 15 17 21 23 24 24 22 18 14 7 5 7 7 7 10 11 9 7 5 3 3 3 3 3 5 8 8 8 9 11 12 13 15 16 15 12 9 9 9 10 10 10 9 8 8
1 3 6 4 2 1 3 6 4 6 8 8 9 8 7 6 6 8 9 9 10 11 11 12 13 13 14 13 13 12 11 10 9 10 10 9 9 9 10 11 12 15 17 18 20 21 21 22 23 23 24 19 9 7 9 9 11 12 12 12 13 11 8 8 10 9 10 11 11 12 14 15 15 14 14 15 14 12 10 9 9 8 10 11 10 10 11
1 2 3 3 1 3 5 7 8 6 7 9 8 7 7 8 8 9 10 10 11 12 11 11 12 13 14 13 13 13 13 12 11 11 10 9 9 8 8 9 11 14 17 17 18 19 19 21 22 22 24 26 24 19 14 10 8 7 8 9 10 11 11 11 12 13 13 13 12 13 14 14 13 11 11 12 11 11 10 10 11 12 14 14 13 14 15
1 2 2 1 3 4 6 7 8 8 4 2 3 5 6 7 9 10 10 12 12 11 11 11 11 12 12 11 11 12 13 13 12 11 11 11 11 10 10 11 12 13 14 15 18 20 21 22 22 21 23 26 27 29 28 24 20 17 14 12 9 8 7 7 9 9 11 14 14 13 13 13 12 11 11 11 11 10 11 13 14 15 15 15 15 17 16
2 2 3 2 3 2 3 7 9 8 6 6 1 6 7 6 8 10 10 12 13 12 11 12 11 10 9 9 8 10 13 13 11 12 12 12 13 13 13 13 12 13 16 18 19 20 21 23 23 21 22 23 24 26 27 25 23 23 23 20 17 15 15 12 9 8 7 8 12 14 14 12 11 12 12 13 13 12 12 14 15 14 14 15 17 18 16
2 2 3 2 1 1 3 7 10 10 11 12 6 4 6 5 6 8 7 9 10 9 10 9 7 4 6 7 7 7 10 12 11 11 11 11 12 14 14 11 8 11 15 17 16 16 16 17 17 17 17 18 19 20 21 21 21 21 22 24 22 19 19 15 10 10 10 10 8 9 13 13 11 11 13 14 14 14 13 13 13 13 13 15 17 16 16
3 3 2 1 2 3 5 6 6 7 10 12 5 5 3 2 6 9 9 9 8 6 6 5 3 2 5 7 7 7 9 10 10 12 13 13 13 15 18 17 9 10 12 14 14 14 14 13 13 13 13 12 12 11 11 14 17 17 17 18 18 17 16 15 12 9 8 7 7 5 6 10 9 8 10 12 12 12 13 13 13 12 12 15 17 15 15
3 3 1 2 3 3 7 8 6 4 5 6 2 3 2 2 9 13 12 12 12 11 9 8 7 7 8 9 9 9 9 10 10 12 14 13 13 13 15 18 16 13 12 13 13 13 13 14 14 15 14 12 10 8 7 8 11 12 12 12 13 12 11 11 11 11 9 7 3 3 1 5 6 4 4 8 10 8 8 10 11 13 13 15 18 17 14
3 2 2 3 3 1 5 8 8 7 2 1 2 2 3 7 11 12 11 12 13 12 10 8 8 10 11 11 10 10 9 8 8 9 10 11 11 11 12 14 15 12 11 12 12 12 12 13 13 13 13 13 12 11 10 10 10 11 12 11 11 11 10 10 11 11 13 12 8 6 6 3 1 4 3 4 7 7 7 6 5 8 10 12 15 17 15
4 0 3 3 3 3 6 5 6 8 4 4 5 5 8 11 12 11 11 11 11 10 9 9 10 11 11 10 9 9 8 7 7 7 7 7 8 9 10 12 13 12 11 11 11 11 11 11 11 12 12 11 11 11 12 13 12 12 13 12 12 11 11 11 12 12 12 12 10 7 7 7 7 8 8 5 5 6 7 7 7 7 6 9 10 11 13
4 2 4 3 3 5 7 6 5 7 7 7 6 7 8 9 8 9 9 8 9 9 8 8 9 9 8 8 7 6 6 6 6 6 6 6 7 8 9 11 12 11 10 10 10 10 10 11 11 11 11 10 10 10 11 12 13 12 13 13 12 12 12 11 12 12 11 11 11 10 10 10 10 10 10 9 9 9 9 10 11 11 10 10 10 10 12
5 5 5 4 4 5 7 8 8 9 10 9 9 9 8 6 7 7 6 7 7 6 6 7 7 6 6 6 5 5 4 5 5 6 6 6 7 7 7 9 11 10 9 9 9 9 10 11 11 11 11 10 11 11 11 11 12 12 12 13 12 12 11 12 13 13 14 13 13 13 12 11 11 12 12 12 12 12 12 13 14 13 13 14 14 14 16
8 8 7 7 7 8 8 7 8 9 9 8 10 10 8 7 7 6 6 6 6 5 5 6 5 5 4 4 3 3 3 3 4 4 4 5 5 5 6 7 8 9 8 8 9 10 10 11 11 12 12 11 11 12 12 12 12 12 12 12 12 11 11 11 12 13 15 16 16 16 15 12 11 11 12 14 14 14 15 15 15 14 13 12 13 14 14
4 5 7 8 8 8 8 8 9 9 8 8 8 7 7 7 7 7 6 5 4 4 5 5 4 4 3 2 2 2 2 2 1 1 2 1 1 1 3 4 5 6 7 8 9 10 11 11 11 12 12 12 12 12 13 13 13 13 13 13 13 13 12 12 13 13 14 15 16 17 17 16 15 15 14 14 15 16 16 14 12 11 9 6 6 8 10
4 6 8 9 9 8 8 7 7 7 8 8 7 7 6 6 6 7 5 4 4 4 4 4 3 1 2 3 2 1 1 1 0 2 1 2 3 2 4 4 4 5 6 7 9 10 11 11 11 12 12 13 13 13 14 14 13 14 15 15 15 15 14 14 14 14 15 16 17 17 18 18 19 19 18 17 16 15 15 14 11 10 10 9 8 6 6
7 7 9 9 9 9 9 9 8 7 7 7 6 6 6 4 5 5 4 3 3 1 1 2 2 1 2 3 4 4 3 2 3 5 6 7 8 8 7 6 6 8 9 9 10 11 11 10 11 11 11 12 12 13 13 13 14 15 15 16 16 16 16 15 15 15 16 16 16 17 17 18 20 20 19 20 19 13 11 13 14 13 13 14 12 9 7
5 6 7 6 6 6 8 8 7 6 6 5 4 5 5 4 4 3 2 2 1 2 3 4 4 2 3 4 6 7 7 6 6 7 7 9 11 10 9 8 9 9 9 9 10 10 11 11 12 12 11 10 11 12 13 13 13 14 15 16 16 16 16 16 16 16 17 17 17 17 17 18 20 20 20 21 22 19 13 11 12 13 12 13 13 13 15
6 6 6 5 5 6 6 6 6 5 3 3 4 3 3 2 2 3 3 4 4 4 5 6 4 3 4 3 3 4 5 7 7 7 8 10 11 11 10 10 9 9 10 10 11 12 13 14 14 14 14 13 13 13 14 14 14 15 15 14 14 15 16 16 17 17 17 17 18 18 18 18 17 18 18 18 20 22 20 16 14 15 15 14 14 15 16
7 6 5 5 6 7 6 5 6 5 4 4 4 4 4 3 4 6 5 5 5 4 4 4 5 5 6 7 5 4 5 6 6 7 9 10 10 10 9 9 11 11 12 13 14 14 14 15 15 16 16 16 15 14 15 15 16 18 17 15 14 16 17 16 18 19 18 17 16 17 18 18 17 17 17 16 14 14 15 14 14 14 14 14 14 14 15
7 6 6 5 6 6 5 4 5 6 5 4 5 5 4 4 6 8 6 5 5 4 4 5 6 6 6 6 6 5 6 7 7 9 10 10 10 9 10 11 12 13 14 14 13 13 13 14 14 15 15 16 16 16 16 16 17 18 19 19 19 19 17 15 16 19 20 18 17 16 17 17 16 14 15 16 15 12 11 12 13 12 12 12 12 12 12
7 5 4 5 6 5 3 3 5 5 4 4 4 5 3 2 1 3 3 3 2 5 6 7 7 6 6 6 7 7 7 8 9 10 10 10 10 11 12 13 13 13 13 13 12 13 13 14 14 14 14 15 15 15 15 16 16 17 19 20 20 20 20 19 17 17 18 18 16 16 17 17 17 15 14 15 17 16 13 10 9 9 9 9 10 10 10
5 3 2 3 4 4 5 5 5 3 3 4 4 6 6 2 5 4 3 3 3 4 4 4 4 4 4 5 6 6 8 9 9 9 10 10 11 11 11 11 12 12 12 12 12 12 13 13 13 13 14 14 15 15 16 16 16 17 18 19 21 20 20 21 20 17 17 18 17 18 19 20 19 18 15 14 15 17 16 12 10 9 7 8 10 11 10
3 3 2 1 3 5 4 3 2 2 4 5 4 5 6 4 3 3 5 4 4 4 3 3 3 3 4 5 6 7 8 8 8 9 10 10 10 10 10 10 11 11 11 11 11 11 12 12 12 13 14 15 15 16 16 16 16 16 16 17 18 18 18 18 19 18 17 16 17 17 18 19 20 20 16 11 11 14 16 16 15 11 4 4 8 8 9
3 3 2 2 4 4 1 2 2 2 3 5 6 6 6 6 5 4 3 2 3 3 4 3 2 4 5 6 6 6 7 7 8 9 9 9 9 10 9 10 10 10 10 10 10 10 11 11 12 13 14 14 14 15 15 15 14 14 15 15 16 16 16 16 17 18 19 18 17 17 15 15 17 18 16 12 11 13 15 13 10 8 4 4 6 7 8
4 3 1 1 1 0 2 3 3 4 4 5 5 5 7 6 4 4 3 2 2 3 3 2 3 4 5 5 5 6 6 7 8 9 8 8 9 9 9 9 9 9 9 9 9 10 11 11 12 13 13 14 14 13 13 14 13 13 14 14 14 15 15 16 18 20 20 18 19 19 17 15 15 16 16 12 10 12 13 11 7 4 2 6 6 5 8
4 3 0 2 2 3 3 3 3 4 4 4 3 3 4 3 3 3 2 2 4 3 2 3 3 3 4 5 5 6 6 8 8 8 7 7 7 8 8 9 9 9 9 9 10 10 10 10 11 11 13 14 13 13 13 13 12 11 12 12 13 13 14 14 17 18 18 17 18 18 17 16 17 17 15 12 11 12 11 8 6 3 2 6 5 5 8
3 3 2 3 4 5 4 2 3 4 5 4 3 2 2 2 2 2 2 3 3 2 1 2 3 4 4 4 5 6 7 8 7 6 5 6 7 7 8 8 7 8 8 9 9 10 10 10 11 11 12 13 12 11 11 10 8 9 10 11 11 12 12 13 15 16 16 17 16 15 15 15 17 17 13 9 9 10 8 5 4 3 4 3 2 3 6
3 4 4 3 3 4 4 3 5 7 8 5 3 2 1 1 2 3 4 5 3 2 2 3 4 3 3 4 6 6 6 7 5 3 5 6 7 7 7 7 7 7 8 8 8 9 9 10 11 11 12 12 10 9 9 8 6 7 8 9 10 11 12 13 14 13 13 14 13 11 11 12 13 13 9 5 5 5 4 5 4 7 11 8 5 7 8
2 3 1 2 3 3 5 5 6 7 7 4 3 3 1 3 4 4 5 5 4 3 3 4 3 3 4 5 4 4 4 5 4 3 5 7 7 7 7 7 7 8 7 6 6 7 8 7 8 10 10 10 8 8 8 7 5 6 7 9 10 10 11 12 11 11 13 13 9 4 3 5 6 7 6 6 6 5 5 7 8 11 15 12 9 9 9
1 2 2 3 3 4 6 6 6 7 6 4 1 2 2 4 5 5 3 3 3 3 4 2 3 5 5 3 2 1 2 3 3 3 5 7 7 6 7 8 9 9 6 3 4 7 6 4 6 9 9 8 7 8 8 7 6 6 8 9 11 11 11 11 12 11 11 9 4 6 7 8 8 9 9 10 10 9 10 12 14 16 17 14 10 8 6
0 1 2 2 4 5 6 7 8 6 5 3 1 2 3 4 5 5 4 4 5 6 5 1 4 4 1 2 2 4 5 5 3 3 5 6 6 5 5 7 9 9 6 4 5 7 6 6 7 8 8 7 8 8 8 7 6 7 8 10 11 11 11 10 9 6 3 2 6 10 11 11 9 9 10 12 13 13 14 15 16 16 16 14 11 9 7
1 3 3 4 4 4 5 7 6 5 3 1 1 3 4 6 6 6 4 3 4 5 5 1 1 2 5 7 8 8 8 6 5 4 4 4 3 3 5 7 8 7 6 6 7 8 8 8 8 8 7 7 7 7 8 9 7 6 7 8 9 8 7 6 4 3 6 8 10 11 11 11 10 10 11 12 13 13 14 15 15 15 15 13 12 11 11
2 3 3 4 4 5 6 6 4 4 1 2 3 5 6 6 5 4 3 3 5 5 4 4 4 5 7 9 9 9 9 8 5 3 3 3 2 1 3 5 5 5 5 6 8 9 9 7 7 7 8 8 7 7 8 9 9 8 9 9 9 8 8 8 9 10 11 10 10 10 11 11 11 10 11 12 13 13 13 14 14 15 15 15 14 14 14
3 3 3 4 4 4 4 4 3 1 3 3 4 6 7 5 2 3 4 5 6 4 3 4 6 6 5 4 4 8 11 8 4 2 3 4 3 1 1 1 4 5 5 5 8 9 8 7 5 5 6 7 7 8 8 9 9 9 9 9 9 9 9 9 10 10 10 10 10 10 11 11 11 11 11 13 13 13 14 15 15 15 16 16 17 17 17
4 4 3 3 4 3 2 3 4 3 4 5 6 7 7 5 4 5 6 5 4 2 2 4 6 5 4 4 3 3 9 9 6 4 5 5 5 5 5 2 4 5 4 5 8 9 9 8 6 4 5 8 9 9 9 9 9 8 8 9 9 9 8 8 8 8 8 9 9 10 10 10 10 9 10 10 11 11 12 13 14 17 17 17 17 18 19
5 5 4 4 3 2 1 2 4 4 5 6 7 7 5 4 4 4 5 4 4 3 3 3 4 4 4 4 4 1 4 7 8 8 8 7 7 6 4 3 3 4 4 5 6 7 7 8 7 5 5 6 8 8 9 9 8 8 8 9 9 8 8 8 7 7 8 8 8 9 10 9 8 7 8 9 10 11 10 10 13 15 15 15 16 17 18
7 7 6 5 4 3 3 3 4 5 6 7 7 6 5 5 5 5 5 4 4 4 4 2 1 1 3 3 3 4 3 3 5 7 8 7 4 3 2 4 2 3 3 4 3 4 5 5 5 5 5 5 6 7 9 9 8 8 8 9 9 9 9 8 8 7 8 8 8 9 9 10 9 10 11 11 13 14 14 13 13 14 14 13 14 15 15
6 6 7 7 7 6 5 4 5 6 8 8 8 7 7 6 6 6 6 5 4 4 4 3 3 4 4 3 4 5 3 2 2 4 5 6 3 2 3 5 3 2 4 4 3 2 2 2 4 4 4 5 5 7 8 8 7 8 8 8 8 8 8 9 8 8 8 9 9 10 10 10 10 10 11 12 13 14 15 15 15 14 13 13 13 13 12
3 5 8 9 8 6 5 4 5 6 7 8 9 8 8 7 7 6 6 6 5 4 4 4 3 3 3 3 3 4 2 1 2 3 2 6 7 5 4 4 2 2 4 4 3 2 0 2 2 2 5 6 7 7 7 7 6 6 7 7 7 8 8 8 8 8 8 8 9 9 10 10 10 10 10 11 11 11 12 12 13 13 13 12 12 12 12
4 4 6 10 11 8 6 6 5 6 7 9 9 9 9 9 8 7 6 6 5 4 4 5 4 3 3 2 1 2 2 1 1 3 3 2 6 6 5 4 3 2 4 5 4 1 1 3 1 4 6 7 6 7 7 6 5 6 6 6 6 7 7 7 7 8 9 9 9 9 9 9 10 10 11 10 9 9 9 10 10 11 11 11 11 11 11
6 6 7 6 9 12 10 6 3 3 6 8 9 9 10 10 9 8 7 7 7 6 6 6 5 4 3 3 2 3 3 3 3 2 2 2 3 3 2 3 4 3 4 5 4 1 2 1 2 4 4 4 4 5 4 4 4 5 5 6 6 7 6 5 5 7 10 11 11 10 10 9 9 9 10 10 9 9 9 9 9 9 10 10 10 10 10
10 8 6 8 9 13 13 7 3 4 7 7 8 9 10 10 10 10 9 8 7 7 6 6 6 5 5 4 3 4 4 3 3 4 5 4 3 2 2 2 3 4 4 4 2 1 1 3 5 5 3 3 4 3 3 2 2 3 3 4 5 6 6 6 6 7 9 10 10 10 9 9 9 9 9 9 9 8 7 8 8 8 9 9 9 9 10
8 12 11 9 11 10 7 5 4 6 7 7 8 8 8 9 10 11 10 9 8 7 7 7 7 6 6 6 4 3 3 3 1 3 5 4 3 4 4 2 1 2 3 3 1 1 2 4 4 3 2 1 1 1 1 2 3 3 4 4 5 6 7 8 8 8 8 8 8 8 8 8 9 8 7 7 7 6 6 7 7 8 9 9 10 10 11
4 8 13 12 8 8 8 8 8 9 9 10 10 8 7 8 10 11 10 9 9 8 8 8 8 7 7 7 6 5 4 3 1 1 4 4 4 4 4 3 3 3 3 3 3 3 2 3 4 4 1 4 5 3 3 4 4 4 5 5 5 5 7 8 8 7 6 6 5 6 7 8 8 7 5 6 6 7 7 8 10 11 11 11 11 12 12
5 6 7 9 8 7 6 7 9 9 9 9 8 5 4 4 9 11 10 10 10 9 9 9 8 8 8 8 7 6 6 5 3 2 3 3 4 4 4 2 3 4 5 4 3 2 2 2 5 6 2 4 5 3 3 4 3 3 4 4 3 3 5 6 6 5 5 5 5 6 7 8 8 7 6 7 9 10 10 11 12 13 13 12 12 13 13
6 5 5 5 6 7 6 5 7 10 11 10 8 6 7 8 9 10 9 8 8 9 9 9 9 8 7 8 8 7 7 7 6 5 5 4 5 6 6 4 3 4 6 6 4 3 2 2 4 6 4 2 2 2 2 3 3 3 4 4 4 4 4 4 5 5 5 6 6 6 6 7 7 7 7 7 9 11 12 12 11 12 12 12 12 13 14
7 6 5 5 7 8 7 7 9 11 12 10 8 6 6 8 10 10 9 8 8 9 10 10 10 9 8 7 7 7 8 10 8 6 6 6 6 6 7 6 4 5 7 6 5 4 4 4 4 5 4 1 0 2 3 3 3 4 4 4 4 5 5 5 5 5 5 6 6 6 6 7 7 7 8 9 10 12 12 12 11 12 12 13 14 15 16
Wind_Direction
255 221 160 138 113 78 0 349 350 356 14 17 11 8 16 22 106 123 118 116 110 107 100 90 86 76 61 45 42 49 47 37 29 23 18 24 39 45 61 79 87 330 82 91 96 98 97 92 81 69 80 103 96 90 90 80 108 139 125 126 201 213 207 203 192 188 184 178 178 186 193 187 174 160 47 123 171 184 189 186 189 193 194 191 189 183 163
244 219 188 186 174 172 237 323 332 343 10 17 10 10 24 56 87 89 100 104 99 103 106 99 93 87 79 63 48 52 56 47 40 39 33 33 47 37 16 75 155 114 81 80 83 88 88 80 75 64 68 89 93 99 108 113 139 160 147 147 181 222 254 261 224 209 201 185 178 180 172 154 159 166 154 157 177 190 191 190 192 191 189 188 186 178 146
242 202 191 212 224 214 207 226 280 330 12 12 7 13 24 52 85 86 82 85 85 89 96 104 112 101 89 79 66 59 59 60 56 51 44 38 50 46 2 340 62 76 71 67 71 81 84 82 84 73 63 84 123 118 118 127 128 128 137 146 166 215 249 269 258 233 220 198 184 176 162 150 161 172 167 171 186 184 166 178 181 173 174 176 177 177 166
248 187 186 172 150 247 243 228 229 236 36 41 41 40 35 32 57 105 108 91 88 98 95 95 97 88 82 78 77 76 70 67 63 57 54 45 40 38 23 19 37 45 45 42 44 54 64 74 96 98 75 59 87 116 112 114 111 113 140 161 170 189 222 252 254 238 232 207 166 140 139 135 151 176 174 176 186 173 140 155 156 137 131 133 145 169 174
216 165 152 122 110 135 299 264 220 197 161 117 96 76 57 31 7 63 109 96 89 94 89 82 73 69 69 67 70 76 72 68 63 57 53 46 40 39 34 33 37 35 37 36 33 32 30 31 47 81 88 85 82 83 98 114 119 119 126 148 166 163 171 218 267 277 100 110 113 115 124 122 138 179 187 182 180 164 138 143 144 136 133 134 149 172 172
225 151 122 116 168 194 348 334 213 171 162 131 106 91 78 65 49 70 87 85 83 80 78 81 79 73 72 72 69 65 64 69 69 63 55 41 32 36 36 35 34 29 31 35 33 29 25 22 26 36 42 52 106 116 113 116 126 136 142 147 152 135 119 134 122 100 120 130 132 139 156 164 167 177 179 173 169 162 154 150 145 151 163 165 169 173 169
248 137 142 154 204 186 39 14 39 135 146 127 111 108 100 95 97 97 92 86 83 82 81 85 89 87 84 82 76 68 65 68 72 72 72 59 39 34 37 35 30 24 24 29 32 28 23 21 22 22 20 16 28 105 133 137 138 148 152 153 155 154 159 167 159 153 153 151 154 161 164 165 165 165 163 159 158 160 161 158 152 159 170 170 172 170 166
40 141 196 198 120 74 62 38 28 55 113 122 115 111 116 123 119 108 105 103 96 95 96 95 96 97 93 84 79 77 75 74 77 77 79 78 66 56 56 52 41 31 25 23 28 28 23 21 20 19 17 15 19 32 47 61 75 95 107 115 131 140 149 159 155 156 159 152 150 157 152 145 145 149 154 158 162 164 162 157 152 150 151 154 157 155 155
224 187 214 182 133 97 70 44 22 29 60 114 132 118 116 128 129 124 123 121 116 115 114 112 112 109 100 88 83 86 86 84 87 92 95 97 94 90 87 82 74 64 51 37 33 30 23 20 20 19 19 18 22 26 28 29 30 34 44 54 65 74 75 89 108 125 144 145 142 141 134 129 134 142 149 152 153 154 151 146 143 142 145 150 152 150 152
211 228 232 203 177 149 48 21 6 8 6 343 358 124 114 108 122 128 130 128 131 137 135 137 143 129 99 88 89 91 93 91 88 90 91 93 100 104 99 95 95 87 74 60 47 38 30 22 18 18 22 23 24 25 24 24 27 29 28 26 28 32 25 25 44 52 66 113 132 135 132 129 135 144 150 149 147 147 149 148 147 148 149 150 151 154 157
175 228 256 247 153 130 22 2 347 345 349 341 331 134 119 95 108 119 126 129 135 147 145 148 165 150 96 92 95 87 88 87 81 80 74 62 67 73 68 72 112 121 96 76 61 50 44 34 21 15 21 29 32 28 23 22 24 26 24 19 17 18 14 12 24 32 26 31 56 99 125 135 144 152 154 154 153 153 156 157 154 158 164 157 152 154 157
202 205 257 49 107 66 18 353 328 334 344 334 313 157 139 29 69 76 75 81 76 77 99 94 57 74 107 109 102 87 81 79 73 74 72 57 49 48 37 30 55 101 90 69 59 53 46 40 32 23 19 32 45 37 27 31 27 19 16 14 11 12 11 7 11 24 27 26 24 40 105 131 150 161 156 158 163 164 169 169 163 171 182 168 155 154 157
241 228 203 95 102 49 354 331 323 338 336 326 346 134 150 51 74 72 66 69 65 57 65 69 56 66 86 94 94 85 76 72 65 66 70 67 59 54 40 31 39 57 55 43 43 46 40 30 28 25 17 21 34 26 18 42 37 14 7 9 3 2 2 352 348 353 357 8 14 329 1 131 160 188 170 164 170 177 188 184 176 186 191 169 156 159 163
286 241 138 109 105 42 307 310 339 1 354 123 66 53 67 73 76 72 65 67 68 62 62 70 74 78 82 87 90 84 74 72 68 60 61 63 58 56 51 39 35 40 47 40 31 31 32 26 22 20 13 13 19 12 7 24 27 8 1 0 353 351 351 344 341 339 337 344 352 336 330 343 284 284 275 199 184 195 214 219 214 205 186 167 162 163 163
305 144 99 105 91 19 330 321 360 8 23 101 88 58 63 64 63 67 64 59 63 67 63 62 67 73 77 77 80 83 77 70 65 60 57 57 52 49 53 47 33 26 32 32 19 14 17 16 13 11 7 7 10 5 360 4 5 356 351 350 348 348 347 340 336 331 324 324 324 314 304 304 300 295 290 269 236 231 234 244 263 258 208 189 193 184 177
325 34 67 74 73 38 27 48 71 47 48 79 87 73 72 69 66 72 70 61 64 71 71 70 68 70 73 70 68 72 72 63 53 49 51 54 46 37 42 47 37 25 23 19 8 4 4 1 2 1 356 354 354 351 349 350 349 347 344 341 340 340 337 329 323 319 313 306 301 292 278 268 262 263 269 269 261 257 250 240 244 248 234 220 222 227 223
45 78 100 105 89 63 58 74 84 71 67 76 76 70 72 79 82 83 83 80 78 78 86 91 82 73 71 71 67 61 60 60 49 35 37 47 43 31 33 36 28 18 13 7 1 358 356 354 351 348 345 342 338 336 336 337 337 336 333 331 331 329 324 323 319 313 308 305 302 296 288 275 260 254 253 252 249 246 244 240 236 234 229 220 217 226 234
83 86 102 106 93 81 78 83 82 74 72 75 73 70 70 72 76 80 80 78 73 68 75 81 86 87 76 65 75 80 71 68 55 34 35 43 36 29 29 23 14 8 2 358 355 351 348 347 344 339 336 331 327 325 325 325 323 321 318 317 317 315 311 311 309 303 301 303 303 302 302 293 281 271 259 250 248 244 242 242 239 235 233 226 221 227 236
113 101 111 111 106 104 100 97 92 85 81 79 76 78 81 80 79 81 86 95 97 87 77 67 69 92 103 92 88 94 98 102 110 144 132 133 196 150 62 25 4 357 353 352 350 343 338 338 336 333 329 324 320 318 316 315 313 311 311 309 306 304 302 300 301 300 299 300 300 301 303 299 293 288 276 260 250 242 241 246 246 243 240 227 232 260 275
89 116 122 116 113 112 105 100 101 98 93 91 93 99 107 116 115 106 107 123 124 108 96 89 87 137 155 150 169 192 158 127 242 249 238 264 274 321 21 7 347 344 342 341 340 332 327 328 329 326 323 319 316 314 313 313 310 305 304 303 302 301 298 295 294 295 295 295 295 293 292 290 288 287 284 279 270 250 239 243 248 249 243 227 223 256 299
106 126 132 129 124 116 102 95 94 91 92 97 102 104 107 113 108 100 97 105 106 116 144 114 127 273 7 12 347 340 349 357 344 332 335 339 338 340 345 342 346 350 342 330 324 316 311 310 307 304 305 307 309 310 307 308 310 308 306 305 301 297 294 292 290 290 288 286 283 281 279 278 278 278 278 280 282 272 242 231 235 243 248 241 231 231 244
128 130 130 130 127 114 104 99 97 97 102 102 92 82 78 62 48 47 16 359 20 293 323 30 49 25 359 359 357 354 345 342 345 343 350 3 356 345 347 357 355 344 320 300 297 299 305 313 310 304 304 308 310 311 307 304 306 307 307 309 306 301 296 290 285 285 286 285 283 279 276 272 270 271 270 269 273 276 267 245 238 241 246 247 242 238 238
100 115 114 105 106 111 110 106 102 96 94 99 99 89 82 55 20 15 347 336 340 335 347 11 12 317 308 337 1 352 335 336 339 338 357 10 356 338 340 344 328 306 292 298 315 325 329 331 327 322 320 317 313 311 309 307 306 302 297 297 300 301 299 296 292 287 281 280 281 282 281 280 277 276 275 270 267 266 263 255 250 250 251 253 251 242 236
96 107 97 89 103 111 112 110 101 82 49 34 35 33 35 25 11 11 356 332 330 329 320 325 322 318 338 357 0 342 327 325 332 345 353 349 330 315 316 316 311 310 316 330 341 341 334 328 324 322 323 320 315 312 308 305 306 305 302 301 300 293 285 285 294 299 293 286 283 283 283 282 282 287 291 288 278 267 256 244 239 242 243 242 242 237 230
92 91 82 90 105 107 113 118 96 77 61 41 12 4 31 44 15 358 337 303 309 328 326 329 334 334 344 348 332 317 315 320 343 359 346 324 317 323 328 330 335 339 340 341 338 330 323 319 317 317 318 317 315 315 312 308 307 308 309 312 311 304 291 283 285 290 292 290 285 282 281 278 274 279 290 293 291 284 267 247 236 234 232 227 227 228 227
93 95 100 116 114 98 91 96 84 71 65 51 3 338 3 99 197 294 297 280 319 1 360 351 342 337 346 345 329 324 330 336 346 347 329 319 334 346 343 342 343 338 333 330 323 319 318 317 315 312 311 311 310 311 309 307 306 306 306 307 308 307 308 309 303 291 287 288 289 292 297 296 289 279 275 285 295 296 285 262 236 229 232 231 226 223 215
87 87 96 125 117 81 49 58 74 59 14 19 357 330 330 281 214 234 315 333 358 17 7 343 324 322 335 334 322 330 346 344 336 329 326 336 349 346 337 335 330 322 321 319 315 316 318 315 311 309 308 308 309 309 307 302 299 297 298 302 304 305 308 312 310 299 288 284 286 293 298 301 301 292 275 272 288 296 295 288 273 260 246 230 230 231 218
92 81 42 54 101 92 62 40 36 359 345 346 324 308 321 327 305 313 331 341 356 357 325 288 290 316 333 337 341 350 351 339 331 333 340 347 347 337 330 327 320 318 319 314 310 314 316 312 311 309 307 308 311 313 312 308 302 297 296 297 298 298 300 303 303 301 298 290 284 285 285 286 295 301 296 285 288 297 300 296 292 295 288 194 203 209 195
108 89 40 37 85 101 129 283 316 339 328 314 310 320 344 354 341 320 324 356 356 318 283 277 323 344 345 347 350 349 338 331 337 346 350 350 345 337 330 325 321 318 315 312 315 322 322 320 318 312 307 310 313 314 315 313 307 300 298 296 293 290 291 293 294 303 314 313 306 304 304 297 294 295 293 289 289 293 296 296 305 335 22 136 172 178 177
130 126 125 38 78 144 286 308 331 332 319 313 327 358 12 5 340 322 338 344 289 268 279 338 357 348 342 341 339 334 335 344 351 349 345 344 343 337 331 327 323 319 315 315 320 324 324 322 318 313 312 313 313 311 308 304 298 293 293 294 292 289 290 292 294 301 309 311 308 311 315 315 306 290 278 279 290 292 291 292 305 336 78 139 150 166 187
138 140 136 354 343 302 299 315 318 310 315 326 342 6 9 348 308 304 317 284 261 275 334 356 345 334 331 330 331 340 355 3 357 344 341 350 352 344 336 330 322 316 316 316 315 317 318 313 309 313 319 318 314 311 306 298 291 289 289 288 288 288 289 290 292 297 302 302 302 303 302 308 313 303 286 284 294 292 288 292 302 309 147 152 157 172 186
143 155 215 262 270 269 272 302 321 313 315 332 351 354 340 313 282 278 272 263 273 303 322 312 313 314 319 336 353 7 10 1 343 334 351 7 2 349 339 331 325 319 315 313 313 313 312 307 305 313 323 324 321 320 317 306 292 286 287 286 287 290 293 292 292 296 299 296 293 289 288 297 307 306 298 293 291 287 288 304 329 39 98 131 191 170 177
183 198 213 232 271 286 293 322 333 322 321 341 47 67 336 272 231 241 250 250 251 255 261 281 296 308 342 11 16 14 4 343 325 353 30 13 353 347 342 333 328 322 313 310 311 311 309 307 307 314 324 330 331 331 329 321 303 292 290 286 284 286 289 289 288 287 289 291 288 280 281 292 302 305 310 322 318 311 331 345 5 84 105 110 113 127 151
241 259 282 46 30 342 327 334 333 318 315 339 81 106 221 244 217 217 242 251 237 221 252 279 312 23 37 30 20 15 4 337 317 356 15 349 328 333 342 340 337 332 323 315 317 317 313 311 316 324 331 336 336 335 333 326 308 296 290 284 284 286 287 288 289 287 289 296 305 312 316 335 348 353 3 3 347 355 32 38 50 87 103 106 105 117 138
265 317 8 20 354 339 340 333 314 301 305 318 76 147 205 227 214 201 213 243 246 252 270 287 66 65 45 19 7 341 307 295 290 305 320 315 312 328 345 351 352 351 348 350 346 339 335 335 336 336 338 344 346 341 332 320 301 293 289 282 282 285 287 293 302 305 299 300 336 49 50 39 33 30 30 26 19 29 54 65 71 83 91 91 91 102 112
323 319 334 327 334 352 345 315 301 308 326 338 337 181 194 210 217 215 210 216 236 261 275 265 98 84 354 275 237 230 242 252 260 264 277 290 301 323 351 1 358 354 356 359 356 1 15 19 3 351 347 351 354 348 340 331 309 289 286 286 288 291 297 302 306 308 318 31 64 61 50 42 41 42 43 43 46 56 69 72 72 75 80 81 84 90 85
308 318 328 331 343 347 318 302 320 360 5 336 185 183 196 204 212 222 224 222 245 268 283 300 93 237 242 235 227 225 226 225 227 238 254 273 291 325 5 11 2 352 349 351 0 16 30 29 20 18 15 9 8 7 4 2 353 333 326 329 328 332 343 353 10 63 73 63 60 58 50 42 43 45 49 52 55 62 70 73 71 73 78 83 90 97 97
282 308 322 326 335 336 319 322 7 54 83 210 178 187 207 211 208 219 241 259 264 274 305 336 317 279 244 227 219 209 200 197 208 231 247 253 269 334 19 17 5 354 347 354 11 23 29 30 34 34 26 18 16 16 16 17 15 11 9 9 12 29 50 60 66 71 70 63 61 60 56 53 53 55 61 67 69 72 78 84 86 88 89 90 93 97 99
269 282 298 311 322 336 337 334 343 142 172 181 186 197 206 212 235 267 261 257 264 280 322 326 307 293 280 265 224 182 174 177 182 188 202 214 223 223 232 351 8 10 7 17 29 33 31 29 33 32 26 26 24 17 20 30 31 26 28 32 34 42 53 62 67 72 72 71 72 71 66 65 65 64 67 74 81 88 94 97 98 98 98 99 100 100 100
254 254 261 286 306 328 351 320 287 236 180 181 203 209 202 201 226 248 252 260 279 314 317 294 292 295 305 319 334 154 169 183 191 187 190 211 233 231 218 227 8 17 33 46 46 45 42 39 39 39 36 34 30 25 30 38 39 37 40 44 43 45 50 55 64 73 75 73 75 77 76 77 75 68 66 71 78 89 101 107 105 102 100 100 100 101 103
250 250 243 244 261 281 294 282 272 248 203 196 210 217 214 221 245 261 267 275 290 295 275 283 316 330 322 320 332 307 193 196 198 197 197 211 238 243 205 157 31 19 54 72 56 48 48 43 39 47 53 43 33 32 39 45 47 49 53 54 53 56 59 60 64 71 76 78 81 82 82 84 83 77 75 78 80 83 95 111 114 111 108 106 104 103 104
242 238 237 236 243 257 260 258 253 241 227 217 215 219 227 236 247 258 261 259 268 276 261 221 168 293 286 279 282 282 259 196 194 206 202 200 237 293 111 121 78 19 78 104 82 58 57 35 11 20 51 58 48 45 48 52 56 56 57 59 59 60 65 70 73 75 79 84 87 87 88 89 90 89 91 94 91 88 90 98 104 105 107 108 108 107 107
270 269 258 241 228 226 235 246 243 238 237 232 221 218 227 232 233 241 251 248 245 255 255 223 189 205 231 252 279 284 268 179 203 237 206 172 149 53 96 125 116 59 93 112 95 63 69 5 333 0 48 68 71 61 53 51 55 56 57 60 61 60 65 73 77 80 88 93 94 96 98 97 95 95 98 101 100 98 96 96 98 98 99 102 105 107 108
274 305 295 276 254 223 202 219 245 243 241 240 233 225 225 231 231 233 242 245 237 233 245 252 239 226 235 262 301 311 319 24 348 302 222 157 140 117 109 121 115 79 95 103 92 78 77 302 316 46 83 89 88 78 62 49 47 53 57 60 61 61 65 70 74 81 96 103 103 105 107 103 100 101 105 107 106 102 100 100 101 101 101 102 103 105 106
220 220 272 294 295 275 227 214 233 238 231 233 237 233 229 231 234 234 237 242 237 226 234 250 254 254 257 259 266 304 322 350 12 343 342 97 122 119 118 132 141 118 97 96 95 88 313 312 318 123 115 104 94 85 74 60 53 56 61 67 72 73 73 70 74 88 104 111 110 110 110 107 103 103 106 107 105 102 102 105 105 104 106 109 110 110 110
278 233 222 254 286 281 261 233 217 242 238 231 233 235 232 233 236 236 235 237 236 228 226 233 234 233 247 257 243 242 247 216 164 111 43 69 117 122 132 170 177 159 113 101 98 50 322 311 148 143 128 97 81 81 77 68 60 59 62 72 83 90 90 85 89 106 115 116 115 113 113 113 111 110 108 108 106 104 107 110 109 107 109 112 113 114 115
306 293 250 215 233 261 271 262 216 225 239 234 229 230 229 229 236 242 240 237 237 233 229 232 231 221 218 236 258 268 267 244 173 137 126 131 139 105 78 113 153 152 131 117 103 50 77 136 139 136 120 96 87 87 95 101 102 107 109 107 105 110 114 113 113 120 124 123 122 121 117 114 114 115 114 112 109 107 109 112 113 112 113 114 116 119 120
323 319 303 258 217 220 251 277 264 255 256 248 240 237 230 224 233 242 240 235 234 233 226 228 235 228 211 209 226 254 277 285 239 139 133 137 147 141 134 140 179 170 147 149 166 156 133 137 141 136 114 56 355 356 101 92 79 82 96 100 105 119 128 130 130 135 138 139 140 139 132 123 118 116 117 120 122 122 123 125 125 123 122 120 121 122 121
273 300 305 295 260 222 216 221 227 238 248 249 248 247 236 223 228 237 236 230 233 239 237 232 232 228 214 206 210 215 219 237 272 102 124 139 154 158 164 197 227 201 170 172 197 206 202 205 205 204 310 0 1 20 71 71 57 56 64 63 64 87 109 118 128 138 141 141 144 140 129 122 122 126 133 139 139 138 138 136 133 129 126 124 122 121 121
247 259 286 301 302 291 265 235 226 234 252 263 274 298 314 267 238 234 231 225 226 235 245 246 240 229 213 204 205 203 196 191 187 166 158 163 162 157 159 177 197 186 172 167 185 221 257 240 209 210 254 4 23 56 79 76 81 89 82 73 75 97 105 106 112 115 108 98 95 96 99 107 120 132 135 134 134 134 133 132 131 128 126 123 121 119 119
259 251 250 272 292 300 298 274 252 249 248 245 243 266 299 297 273 252 247 245 240 239 243 247 249 243 225 210 207 203 189 178 175 178 178 175 172 172 180 197 219 201 183 179 193 218 223 189 193 208 234 325 23 106 113 102 109 118 107 101 116 133 124 110 108 108 104 104 106 106 108 117 129 131 124 123 129 131 128 127 127 126 124 123 125 126 125
249 236 227 236 251 258 254 246 245 249 250 242 224 221 257 284 282 268 258 253 250 250 252 252 249 244 236 229 227 211 183 169 171 179 180 179 185 194 197 201 203 186 177 182 201 212 202 197 208 213 213 218 126 169 165 148 135 132 129 124 123 123 120 119 121 124 125 126 127 127 126 128 130 128 123 124 127 129 128 127 128 129 130 132 133 131 128
Height
722 721 729 734 737 742 744 745 744 739 738 740 738 737 738 738 743 755 758 759 765 765 761 763 764 766 771 772 770 770 771 771 771 772 775 774 773 772 771 774 776 773 770 771 773 774 774 775 776 777 779 780 782 784 786 786 787 788 790 793 795 796 797 796 796 797 798 800 801 803 804 805 807 810 814 817 817 817 817 818 820 822 823 824 825 825 825
724 723 729 733 737 742 745 748 748 743 743 748 749 747 745 745 749 753 754 758 763 760 760 764 764 765 769 771 771 771 771 774 776 777 780 780 780 781 781 779 776 773 772 773 775 777 777 778 779 779 781 783 784 786 786 787 788 789 790 792 793 795 798 798 796 796 797 798 799 801 802 805 807 808 811 815 817 817 818 819 820 821 822 824 824 825 825
728 725 729 733 736 739 742 747 748 747 750 754 755 756 755 754 760 764 763 764 764 758 757 763 766 766 768 773 778 779 779 781 783 784 786 785 784 784 785 782 777 774 776 776 777 780 781 781 781 782 783 785 785 786 787 788 789 790 792 794 795 797 800 800 798 797 798 799 800 801 801 803 805 806 808 811 814 815 816 817 818 820 821 823 823 824 826
734 728 731 736 740 743 746 750 751 752 756 760 762 764 764 763 764 766 768 770 768 761 758 764 767 768 772 779 784 786 787 786 787 789 790 791 790 790 790 787 782 781 782 782 782 783 783 783 784 784 785 785 786 787 788 789 790 791 792 794 796 798 800 801 800 800 800 802 803 804 804 805 806 807 809 811 813 814 815 817 818 819 820 822 823 824 825
738 731 733 741 747 756 759 753 750 752 755 758 764 768 767 765 764 765 768 768 765 761 762 768 772 774 779 783 785 788 790 790 792 793 794 795 796 795 794 792 788 787 788 788 788 788 787 787 787 788 788 788 788 788 789 790 791 792 793 794 795 796 798 800 802 803 804 805 805 805 806 807 808 810 812 812 813 814 815 817 818 818 820 821 822 824 825
740 734 737 749 757 763 762 749 741 746 751 755 763 768 768 767 766 766 766 765 764 765 768 773 778 780 783 785 787 789 791 793 795 796 799 801 800 798 797 795 792 792 791 791 791 791 791 791 790 791 791 791 791 790 790 791 792 794 795 796 797 799 799 800 803 806 806 806 806 806 807 809 810 812 812 812 812 813 815 816 817 818 820 821 822 823 824
745 741 746 762 769 763 755 746 740 742 747 753 762 767 766 766 766 766 768 769 770 771 773 776 779 782 784 786 789 791 792 794 796 798 801 803 803 802 800 797 796 796 795 794 794 794 794 795 794 794 793 792 791 791 791 792 793 794 795 797 799 800 801 801 803 806 808 808 808 809 810 811 811 811 811 811 812 813 814 816 817 818 820 820 821 822 823
754 754 757 767 769 760 753 752 749 747 751 757 765 769 768 765 767 771 774 776 775 776 778 779 780 783 785 786 790 792 794 795 796 798 801 802 803 804 802 800 800 800 799 799 798 798 798 798 798 797 796 794 792 791 791 791 792 793 793 795 797 798 800 802 803 805 807 807 808 809 810 809 809 810 811 811 812 814 815 817 818 819 820 820 821 822 823
756 760 765 768 766 764 764 765 763 762 764 765 766 770 769 764 765 771 775 777 778 779 780 781 781 782 785 789 792 794 795 796 797 799 800 801 802 803 803 803 803 803 804 803 801 800 800 800 800 800 798 797 795 793 794 794 794 795 795 796 798 798 799 800 801 803 804 805 806 807 807 808 808 810 811 812 813 814 815 817 818 819 820 820 821 822 822
750 756 765 767 770 777 779 777 772 768 768 764 760 766 770 766 764 769 772 775 778 778 779 781 780 780 785 791 794 794 794 796 797 798 800 800 801 802 803 804 805 805 806 805 804 803 802 802 802 802 801 800 798 798 799 799 799 798 797 798 799 799 800 800 801 802 803 803 803 804 805 807 808 809 810 812 812 813 815 817 818 819 820 820 821 822 822
749 757 764 768 776 786 787 784 778 772 771 768 762 768 776 771 766 769 771 772 775 775 776 777 776 779 787 794 795 794 794 796 797 799 801 801 801 803 805 805 805 806 806 806 806 806 806 807 806 805 805 804 803 804 805 805 803 802 801 801 801 802 803 802 802 803 803 803 803 803 805 807 808 809 810 811 812 813 814 816 817 819 820 820 821 822 822
749 757 766 773 782 788 787 785 781 777 776 773 769 778 786 777 771 775 775 775 777 776 776 778 779 782 788 793 795 795 795 796 799 800 803 805 805 806 807 806 805 805 806 807 808 809 810 811 810 809 809 808 808 809 810 809 808 807 806 806 805 805 805 804 804 805 806 806 805 805 806 807 808 809 810 811 812 812 813 814 816 818 819 819 820 821 822
748 755 768 780 787 790 788 785 778 774 776 779 780 787 787 777 775 780 780 780 783 782 782 784 786 787 788 791 795 797 798 800 802 803 806 808 809 809 810 809 808 808 809 810 810 811 812 812 812 812 811 811 811 812 811 812 812 811 811 810 808 808 807 806 806 807 807 807 807 806 807 807 808 809 810 811 811 812 812 813 814 816 817 818 818 819 821
750 754 770 785 791 792 788 783 776 771 777 789 793 789 782 778 780 784 784 785 788 789 789 789 790 792 793 795 798 801 803 805 807 808 809 810 811 812 813 813 812 812 812 813 813 813 814 814 815 814 814 814 814 813 813 813 813 813 813 812 811 810 809 808 808 808 808 808 807 807 807 807 808 809 810 810 811 812 812 812 813 814 816 817 818 819 820
755 756 773 789 794 791 783 780 782 781 783 791 793 788 785 786 787 788 789 791 793 795 796 795 796 798 800 801 803 806 808 809 810 811 812 813 813 814 814 815 816 815 815 815 815 815 816 816 816 816 816 816 815 815 815 814 814 814 813 812 812 811 811 810 810 809 809 808 808 808 807 807 808 809 809 810 810 811 811 812 812 813 814 815 817 818 818
764 771 788 796 795 790 783 783 790 791 789 789 790 790 792 794 794 795 797 798 799 800 801 802 803 805 806 808 809 810 811 813 813 814 814 815 816 816 816 817 818 817 817 818 817 817 817 817 817 817 816 816 816 816 816 815 815 814 813 813 813 812 812 812 811 811 810 809 809 808 807 808 808 808 809 809 809 810 811 811 812 813 813 815 816 817 818
774 782 792 794 791 789 786 787 791 792 791 791 792 794 797 797 798 800 802 804 805 804 805 806 808 810 811 812 813 814 815 816 816 816 817 817 818 818 818 819 819 819 819 819 819 819 818 818 818 817 817 816 816 816 816 815 815 815 814 814 814 813 813 813 813 812 811 810 809 808 807 807 807 807 808 808 808 809 810 810 811 811 812 813 814 815 816
780 785 789 790 790 792 791 790 791 793 794 795 796 799 801 801 802 804 805 808 808 807 808 809 811 814 815 816 816 817 817 817 818 819 819 819 819 819 819 819 820 820 820 820 820 820 820 819 819 818 818 817 817 816 816 815 815 815 814 814 814 814 814 814 813 813 812 810 809 808 807 807 806 806 807 807 807 808 808 809 809 810 811 812 813 814 814
783 791 794 791 791 794 793 793 795 796 797 798 800 802 804 805 806 807 809 810 811 811 811 813 814 816 817 817 817 817 817 817 818 819 819 819 819 818 819 819 819 820 820 820 820 820 820 820 819 819 819 818 817 817 816 816 815 815 814 814 814 813 813 813 813 813 812 811 810 808 807 807 806 806 806 805 805 806 806 808 808 809 810 811 812 813 814
785 793 794 790 791 793 792 793 796 797 799 802 802 803 805 806 807 808 810 810 811 811 812 814 815 815 815 815 815 814 814 815 816 816 817 817 816 817 817 818 819 819 819 820 820 820 820 820 819 819 818 818 817 817 816 816 815 815 814 813 813 812 812 812 812 811 811 810 810 809 808 807 806 805 804 804 804 803 804 805 807 808 810 810 810 812 814
791 793 791 790 792 794 794 796 798 799 800 802 803 803 805 805 806 807 809 809 810 811 811 812 813 813 813 814 813 813 812 813 815 816 816 816 817 817 818 818 819 819 820 820 820 820 819 819 818 818 817 817 817 816 816 815 815 814 813 813 812 811 811 811 810 810 810 809 809 808 807 806 806 805 804 803 803 802 802 803 804 806 808 808 808 810 812
789 790 788 789 793 797 798 799 800 800 802 803 804 805 806 807 808 809 809 809 810 810 810 811 812 814 815 815 816 816 815 815 816 817 818 818 819 819 818 819 820 820 820 819 819 818 818 817 817 816 816 816 816 816 815 815 814 814 813 812 812 811 810 810 809 809 808 808 807 806 806 805 804 803 803 803 802 802 802 801 802 803 805 805 806 807 809
786 787 787 788 792 798 800 800 800 802 802 803 804 806 807 808 809 810 810 811 811 810 811 812 814 814 814 814 816 818 818 818 818 818 819 820 820 820 820 820 820 819 819 818 817 817 816 817 817 816 816 815 815 815 815 814 814 814 813 812 812 811 810 809 808 807 807 806 806 805 804 804 803 802 801 801 800 800 800 800 800 801 802 803 804 805 806
787 788 789 790 793 798 800 800 802 804 804 804 805 807 808 809 810 811 813 813 812 813 813 813 814 814 814 815 817 819 819 819 819 819 820 821 820 820 819 819 818 818 817 817 817 817 818 818 818 817 817 816 816 815 815 814 814 813 812 811 811 810 810 809 808 807 806 805 804 804 803 802 802 801 800 800 799 799 799 799 799 799 799 800 801 803 804
789 791 792 792 795 798 799 800 803 805 807 808 809 809 810 812 813 814 815 814 813 814 814 814 815 816 816 817 818 818 818 818 819 820 820 820 819 819 818 818 818 818 818 819 819 819 820 819 819 818 818 817 817 816 815 814 814 813 812 811 811 810 809 808 807 806 806 805 804 803 803 802 801 801 801 800 799 798 798 798 798 798 798 799 800 801 802
791 793 794 794 797 799 800 802 805 807 808 809 810 811 811 812 814 814 814 813 814 815 816 817 818 818 818 819 819 818 818 819 819 820 820 819 818 819 820 820 820 821 821 821 821 821 820 820 820 819 819 818 817 817 816 815 814 813 812 811 810 810 808 807 806 806 805 804 803 803 802 802 801 800 800 800 800 799 798 798 797 798 798 799 799 800 801
794 795 796 797 800 802 803 805 808 808 808 809 811 812 811 812 812 812 812 813 814 816 818 820 819 819 819 820 819 819 819 820 820 820 819 819 820 821 822 822 822 822 822 822 821 821 821 820 820 819 818 817 817 816 815 815 814 813 812 811 810 808 807 806 805 805 804 804 803 802 802 801 801 800 799 799 799 799 798 798 797 797 798 798 799 800 800
796 797 798 800 803 806 807 807 807 808 809 810 811 810 810 811 812 812 813 814 815 817 819 819 819 819 819 819 819 820 821 821 821 820 820 821 822 823 823 823 823 823 822 822 821 821 820 819 819 818 817 817 816 815 814 814 813 812 812 811 810 808 807 806 806 805 804 803 802 802 802 801 801 800 799 798 799 799 798 797 797 797 797 797 798 799 801
798 800 801 801 803 805 806 806 806 807 808 809 809 809 810 812 813 813 814 815 817 819 818 818 818 819 819 820 821 821 822 822 821 821 822 822 823 823 823 823 823 823 822 822 821 820 820 819 819 818 817 817 816 815 814 813 812 812 811 810 810 809 808 807 806 805 804 802 802 801 801 800 800 799 799 798 798 799 798 798 797 797 797 798 798 800 801
799 801 803 803 804 805 805 805 806 807 807 808 808 810 812 814 815 816 816 817 818 818 817 817 819 820 820 821 821 821 822 822 822 823 823 823 823 824 824 823 823 822 822 821 821 820 820 820 819 818 817 816 815 814 813 813 812 811 811 810 809 809 808 807 806 805 804 803 802 801 800 799 799 799 798 798 798 798 798 797 797 797 798 798 799 800 801
799 802 804 805 805 806 806 806 806 807 807 807 808 811 814 816 818 818 819 819 818 817 817 818 820 820 821 821 821 821 822 823 823 824 824 823 824 824 824 823 823 822 822 821 821 820 820 819 818 817 816 815 814 813 812 812 811 810 810 809 809 808 807 807 806 805 804 803 802 802 801 800 799 798 797 797 797 797 797 796 796 796 797 797 798 799 799
801 804 806 806 806 805 805 805 806 806 805 806 808 811 814 817 818 819 820 819 818 818 819 820 820 820 820 821 821 822 823 824 824 824 824 824 824 824 824 823 823 822 822 821 821 820 820 819 818 816 815 814 813 812 811 810 810 809 809 809 808 807 807 806 805 805 804 803 802 802 801 800 800 799 797 797 797 796 796 796 796 796 796 796 797 798 798
802 804 805 806 806 805 805 805 806 806 805 806 808 812 815 817 819 820 820 819 818 818 819 819 819 819 820 821 822 823 824 824 824 824 824 825 825 824 824 823 822 822 821 820 820 820 819 818 817 815 814 813 812 812 811 810 809 809 809 808 808 807 806 806 805 804 804 803 802 801 800 800 799 799 798 797 796 795 795 795 795 796 796 796 797 798 799
802 802 803 804 807 807 807 807 808 807 806 806 809 812 815 817 818 819 819 818 817 817 818 818 818 819 820 821 822 823 824 824 824 824 824 825 824 824 823 822 821 821 820 819 819 819 818 817 816 814 813 813 812 811 810 810 809 809 808 808 807 806 805 804 804 803 803 802 801 800 800 800 799 798 797 796 795 795 795 796 796 797 797 798 799 799 800
802 803 804 805 807 808 808 809 809 807 806 807 809 812 815 817 817 818 818 817 817 817 817 817 818 819 821 821 822 823 823 824 824 824 824 824 824 823 822 821 821 820 819 819 819 818 816 815 815 814 813 812 811 810 810 809 809 808 808 807 806 805 804 804 803 803 802 802 801 801 800 799 798 797 797 796 796 796 796 797 798 799 799 800 801 802 802
803 804 805 806 807 808 809 810 808 807 807 808 810 813 815 816 817 816 816 817 817 817 816 816 818 819 820 820 821 822 822 822 823 823 823 823 823 822 821 820 820 819 819 818 818 817 815 815 814 813 812 812 811 810 810 809 808 807 807 806 805 804 803 803 803 802 802 802 802 801 800 800 799 798 798 797 797 797 798 798 800 801 802 803 804 804 805
805 806 807 807 808 809 810 809 808 808 809 810 812 814 815 816 816 815 815 816 816 816 815 816 816 817 818 819 819 820 820 821 821 822 822 822 822 821 820 820 819 819 818 818 817 816 815 814 814 813 812 812 811 810 809 808 807 807 806 805 804 804 803 803 802 802 803 803 803 802 802 801 800 800 799 799 800 800 800 800 801 802 803 805 806 806 807
806 807 808 808 809 810 810 809 809 810 811 812 813 814 815 815 814 814 815 815 815 815 815 815 815 815 815 816 817 817 819 819 820 820 821 821 820 819 819 819 819 819 818 817 816 815 815 814 814 814 813 812 811 811 810 809 808 807 806 806 805 804 804 804 803 803 804 804 804 804 804 803 803 803 802 802 802 802 802 802 803 804 805 806 807 807 808
807 808 809 809 809 810 810 810 810 811 811 812 813 814 814 814 814 815 815 815 814 814 814 815 815 814 814 813 814 815 816 818 819 819 819 819 819 818 819 819 819 818 817 817 816 815 815 815 814 814 813 813 812 811 810 809 808 807 807 807 806 806 806 805 805 805 805 806 806 806 806 806 805 805 805 805 804 804 804 805 806 807 807 808 809 809 810
807 807 809 809 810 810 811 811 811 810 811 812 813 813 812 813 814 814 814 813 813 813 814 815 814 814 813 813 813 814 815 816 817 818 818 817 817 817 818 818 818 817 817 816 816 816 815 815 814 814 813 813 812 811 810 809 809 808 808 808 808 807 807 807 807 807 807 807 807 807 807 808 808 807 807 807 807 807 808 808 808 809 810 811 811 812 812
806 807 808 809 809 810 810 811 810 810 810 811 812 811 811 812 813 813 813 813 813 813 814 814 814 814 814 813 813 814 814 814 815 815 816 816 816 816 816 817 817 817 817 816 816 816 815 815 815 814 813 813 813 812 811 810 810 810 809 809 809 809 808 808 808 808 808 809 809 809 809 809 809 809 809 809 809 809 810 810 811 811 812 813 814 814 815
805 805 806 807 808 809 809 809 810 810 809 810 810 811 812 812 813 813 813 813 813 813 813 813 814 814 814 814 813 813 812 813 814 814 814 815 815 814 815 816 816 816 816 816 816 816 816 815 815 814 813 813 813 813 812 811 811 811 811 810 810 810 810 810 810 810 810 810 810 810 811 811 811 811 811 811 811 811 811 812 813 813 814 815 816 816 817
804 804 804 805 806 806 807 808 808 808 808 808 809 810 811 812 812 812 812 812 812 812 812 812 812 813 813 813 812 812 811 811 812 812 812 813 814 814 814 815 816 816 816 815 816 816 816 816 815 814 813 813 813 813 813 812 812 812 812 812 811 811 811 811 811 811 811 811 811 812 812 812 813 813 813 813 813 813 814 814 814 815 816 817 817 818 819
803 804 805 805 804 804 805 806 807 808 808 808 808 808 809 810 810 811 811 811 811 811 811 811 811 812 812 812 812 811 810 811 811 811 810 811 813 814 815 815 815 815 815 815 815 816 816 815 815 814 814 813 813 813 813 813 813 813 812 812 812 812 812 812 812 812 812 812 812 813 813 813 814 814 815 815 815 815 816 816 816 817 817 818 819 820 820
801 802 804 805 804 803 803 804 805 806 806 807 807 807 808 808 809 809 810 810 810 810 811 811 811 811 811 811 811 811 811 811 811 811 810 810 812 814 815 815 815 815 815 815 815 815 815 815 814 814 814 813 813 813 813 813 814 813 813 813 813 813 814 813 813 813 813 813 813 814 814 815 815 815 816 816 817 817 817 818 818 819 819 820 820 821 821
800 800 801 803 804 803 802 802 803 804 805 805 806 806 807 807 807 808 808 808 809 809 809 810 810 810 810 810 810 810 810 810 810 811 811 811 812 813 813 814 814 814 814 814 815 815 815 814 814 814 814 813 813 813 813 814 814 814 814 814 814 814 814 815 814 814 814 814 814 815 815 816 816 816 817 817 818 818 819 819 819 820 820 821 821 822 822
800 800 799 800 802 803 802 801 802 803 803 803 804 804 805 806 806 806 806 807 807 807 808 808 808 809 809 810 810 809 809 808 809 810 811 811 811 812 812 812 813 813 814 814 814 814 814 814 814 814 814 813 813 813 813 814 814 814 814 814 814 814 815 815 815 815 815 815 815 816 816 816 817 818 818 818 819 819 820 820 820 820 821 822 822 823 824
800 800 799 799 801 802 802 801 802 802 803 802 802 802 803 804 805 805 805 805 805 806 806 806 807 807 808 808 809 809 809 808 808 809 810 811 811 811 811 812 812 813 813 814 814 814 814 815 814 814 814 813 813 813 813 813 813 813 813 814 814 814 814 814 815 815 816 816 816 816 817 817 818 819 819 819 820 820 820 821 821 822 822 823 824 824 825
800 800 800 799 799 799 800 800 801 802 802 802 801 801 801 802 803 803 803 803 804 804 804 804 805 805 806 807 807 808 808 809 809 809 810 811 811 811 811 811 811 812 812 813 814 814 814 814 814 814 814 813 813 813 813 813 813 813 814 814 814 814 814 815 815 815 816 816 816 817 817 817 818 819 820 820 820 821 821 822 822 823 823 824 825 825 826
799 799 799 799 798 798 798 798 798 799 800 800 800 800 801 801 801 801 801 801 802 802 803 802 802 803 803 805 806 806 807 808 809 809 810 810 811 811 811 811 811 811 812 813 813 813 813 814 814 814 814 813 813 814 814 814 814 814 814 814 815 815 815 815 816 816 816 817 817 817 818 818 819 820 820 820 821 821 822 822 823 823 824 825 826 827 828
797 797 797 798 798 798 798 797 798 798 799 799 800 800 801 801 801 800 800 800 800 801 801 801 801 801 801 802 803 805 806 807 808 809 809 810 810 810 811 811 811 811 811 812 812 813 813 813 813 814 814 814 814 814 814 814 815 815 815 815 815 815 816 816 816 816 817 817 818 818 819 819 820 820 821 821 821 822 822 823 824 825 826 827 827 828 828
795 795 796 796 796 796 796 797 797 798 798 798 798 798 800 801 801 800 799 799 800 800 800 800 800 800 800 801 801 802 804 805 806 807 808 809 810 810 810 810 810 811 811 811 812 812 813 812 813 813 814 814 814 814 814 815 815 815 815 815 816 816 816 816 817 817 817 818 818 819 819 820 820 821 821 821 822 823 824 824 825 826 827 827 828 829 829